[[{"header":{"parameterUnit":"m.s-1","parameterCategory":1,"la1":30.2992,"la2":30.254,"lo1":-89.0895,"lo2":-89.0443,"dy":0.0025,"dx":0.0025,"nx":19,"ny":19,"refTime":"2026-04-14T21:00:00:Z","depth":0,"parameterNumber":2,"parameterNumberName":"U-component_of_WINDS"},"data":[0,0,0,-1.8715,-1.8715,-1.8699,-1.8699,-1.869,-1.869,0,0,0,0,0,0,0,0,0,0,0,-1.8727,-1.8727,-1.8715,-1.8715,-1.8699,-1.8699,-1.869,-1.869,0,0,0,0,0,0,0,0,0,0,0,-1.8727,-1.8727,-1.8727,-1.8715,-1.8699,-1.8699,-1.869,-1.8698,0,0,0,0,0,0,0,0,0,0,-1.8711,-1.8729,-1.8727,-1.8727,-1.8715,-1.8699,-1.8699,-1.8698,-1.8698,-1.8702,0,-1.8708,0,-1.8699,-1.869,-1.869,0,0,0,-1.871,-1.8729,-1.8719,-1.8727,-1.8715,-1.8699,-1.8705,-1.8698,-1.8697,-1.8701,-1.8708,-1.8707,-1.8699,-1.869,-1.869,-1.8733,-1.8733,0,0,-1.8711,-1.8727,-1.8719,-1.8719,-1.8722,-1.8705,-1.8704,-1.8697,-1.8705,-1.8708,-1.8707,-1.8699,-1.869,-1.869,-1.8733,-1.8733,0,0,0,-1.8717,-1.8728,-1.8718,-1.8719,-1.8716,-1.8705,-1.8704,-1.8705,-1.8701,-1.8706,-1.8698,-1.869,-1.869,-1.8732,-1.8733,-1.877,0,0,0,-1.8717,-1.8732,-1.8718,-1.8729,-1.8716,-1.871,-1.8713,-1.8701,-1.87,-1.8699,-1.869,-1.869,-1.8732,-1.8732,-1.8768,-1.8785,0,0,0,-1.8725,-1.8733,-1.8733,-1.8729,-1.8723,-1.871,-1.8705,-1.87,-1.8695,-1.869,-1.869,-1.8731,-1.8732,-1.8766,-1.8782,-1.8801,0,0,0,-1.8739,-1.8766,-1.8734,-1.8761,-1.8723,-1.8733,-1.8704,-1.8711,-1.8711,-1.869,-1.8732,-1.8733,-1.8766,-1.878,-1.8799,-1.8819,-1.883,0,0,-1.8783,-1.8772,-1.8787,-1.8757,-1.8777,-1.8735,-1.876,-1.8744,-1.8729,-1.8733,-1.8733,-1.8769,-1.8782,-1.88,-1.8882,-1.889,0,0,0,-1.8806,-1.8817,-1.8819,-1.882,-1.8809,-1.88,-1.8779,-1.8773,-1.8775,-1.8734,-1.878,-1.8788,-1.8798,-1.8807,-1.8814,-1.8822,-1.8738,-1.8738,-1.8738,-1.8892,-1.887,-1.8893,-1.887,-1.8871,-1.8849,-1.8848,-1.8836,-1.8815,-1.8826,-1.8827,-1.8879,-1.889,-1.8895,-1.8903,-1.8836,-1.8836,-1.8836,-1.8836,-1.8953,-1.8965,-1.8935,-1.8947,-1.8924,-1.8933,-1.8913,-1.8897,-1.8903,-1.8876,-1.8884,-1.8857,-1.8905,-1.8911,-1.8839,-1.8839,-1.8838,-1.8838,-1.8838,-1.9006,-1.9008,-1.9001,-1.9,-1.9001,-1.8977,-1.8983,-1.8963,-1.8943,-1.8951,-1.8949,-1.8949,-1.8945,-1.8952,-1.8952,-1.8952,-1.8952,-1.8952,-1.8953,-1.9064,-1.9055,-1.9063,-1.9053,-1.9051,-1.9045,-1.9023,-1.9021,-1.9012,-1.8997,-1.8996,-1.8973,-1.8914,-1.8899,-1.8955,-1.8955,-1.8954,-1.8954,-1.8954,-1.9134,-1.9115,-1.9127,-1.9125,-1.9112,-1.9115,-1.9088,-1.9084,-1.9079,-1.9083,-1.9058,-1.9018,-1.9006,-1.9,-1.8987,-1.9063,-1.9063,-1.9063,-1.9063,-1.9178,-1.917,-1.9178,-1.9176,-1.9171,-1.9148,-1.9163,-1.9147,-1.9127,-1.9122,-1.9108,-1.909,-1.9085,-1.9076,-1.9068,-1.9056,-1.9148,-1.9148,-1.9148,-1.922,-1.921,-1.9227,-1.9207,-1.9195,-1.9185,-1.9198,-1.9197,-1.9171,-1.9151,-1.9118,-1.9114,-1.9085,-1.9076,-1.9056,-1.9045,-1.9023,0,0]},{"header":{"parameterUnit":"m.s-1","parameterCategory":1,"la1":30.2992,"la2":30.254,"lo1":-89.0895,"lo2":-89.0443,"dy":0.0025,"dx":0.0025,"nx":19,"ny":19,"refTime":"2026-04-14T21:00:00:Z","depth":0,"parameterNumber":3,"parameterNumberName":"V-component_of_WINDS"},"data":[0,0,0,3.4064,3.4063,3.4018,3.4018,3.3971,3.397,0,0,0,0,0,0,0,0,0,0,0,3.4084,3.4084,3.4064,3.4063,3.4018,3.4018,3.3971,3.397,0,0,0,0,0,0,0,0,0,0,0,3.4084,3.4084,3.4084,3.4063,3.4018,3.4018,3.3971,3.4001,0,0,0,0,0,0,0,0,0,0,3.4043,3.4069,3.4084,3.4084,3.4063,3.4018,3.4018,3.4002,3.3999,3.3996,0,3.3996,0,3.3983,3.3968,3.3968,0,0,0,3.4057,3.4071,3.4053,3.4084,3.4062,3.4018,3.4037,3.4,3.3997,3.3992,3.3995,3.3993,3.3982,3.3968,3.3968,3.3973,3.3973,0,0,3.406,3.408,3.4056,3.4051,3.406,3.4038,3.4035,3.3998,3.4002,3.3995,3.3992,3.3981,3.3968,3.3967,3.3973,3.3973,0,0,0,3.4071,3.4082,3.4064,3.4053,3.4045,3.4037,3.4034,3.4004,3.3997,3.3991,3.3981,3.3967,3.3967,3.3973,3.3973,3.4008,0,0,0,3.4072,3.4088,3.4065,3.4077,3.4046,3.4024,3.4041,3.3999,3.3994,3.3981,3.3967,3.3967,3.3972,3.3973,3.4006,3.4021,0,0,0,3.4085,3.4089,3.4085,3.4078,3.406,3.4024,3.4014,3.3998,3.3988,3.3968,3.3966,3.3972,3.3973,3.4005,3.4018,3.403,0,0,0,3.4104,3.4115,3.4086,3.4095,3.406,3.4046,3.4014,3.4002,3.3989,3.3967,3.3972,3.3973,3.4004,3.4017,3.4028,3.4043,3.4051,0,0,3.4129,3.4119,3.4123,3.4096,3.4093,3.4052,3.4053,3.4021,3.4,3.3983,3.3983,3.4007,3.4018,3.4029,3.4088,3.4095,0,0,0,3.4137,3.4141,3.4135,3.4125,3.4103,3.4085,3.4051,3.404,3.4025,3.3996,3.4013,3.4019,3.4025,3.4031,3.4037,3.4041,3.3977,3.3976,3.3976,3.4201,3.4176,3.4181,3.4152,3.4142,3.4109,3.4099,3.4078,3.4052,3.4058,3.4052,3.4091,3.4099,3.4103,3.4108,3.4058,3.4058,3.4058,3.4058,3.4236,3.4238,3.4208,3.4203,3.4176,3.4171,3.414,3.4124,3.4115,3.4092,3.4096,3.4074,3.4111,3.4114,3.406,3.406,3.406,3.4059,3.4059,3.4275,3.4272,3.426,3.4244,3.4235,3.4204,3.4199,3.4174,3.415,3.4154,3.4147,3.4146,3.4143,3.4153,3.4153,3.4153,3.4153,3.4153,3.4153,3.4321,3.4306,3.4305,3.4285,3.4277,3.4262,3.4231,3.4222,3.4205,3.4188,3.4188,3.4164,3.412,3.411,3.4155,3.4155,3.4154,3.4154,3.4154,3.4367,3.4354,3.4352,3.4344,3.432,3.4314,3.4283,3.4267,3.4256,3.4254,3.423,3.4202,3.4189,3.4184,3.4176,3.4235,3.4235,3.4235,3.4235,3.4401,3.4393,3.4387,3.4377,3.4363,3.4337,3.4337,3.4314,3.4287,3.4279,3.4267,3.4253,3.425,3.4239,3.4233,3.4225,3.4296,3.4296,3.4296,3.4429,3.4419,3.4423,3.4399,3.4379,3.4362,3.4362,3.4351,3.4318,3.4298,3.4272,3.427,3.4248,3.4242,3.422,3.4212,3.4196,0,0]}]]